Back to catalog

THOR ABLESTAR DEB

AliveLEO
NORAD 245·DEBRIS·🇺🇸 United States

Launched Jun 29, 1961 from Cape Canaveral Space Force Station

Loading…

Next Passes (next 24 hours)

TLE

FreshSource: Space-Track

Epoch: Sep 9, 2026, 03:26 UTC

1 00245U 61015CA  26252.14346057  .00000115  00000-0  97235-4 0  9998
2 00245  66.1036 310.8688 0045992 160.9526 199.3295 14.18285037339784

Track THOR ABLESTAR DEB in real time with AllMySat

Download on the App Store